Other Surface Observations
Issued by NWS Jacksonville, FL

Home | Current Version | Previous Version | Text Only | Print | Product List | Glossary On
Versions: 1 2 3 4 5 6 7 8 9 10 11 12 13 14 15 16 17 18 19 20 21 22 23 24 25 26 27 28 29 30 31 32 33 34 35 36 37 38 39 40 41 42 43 44 45 46 47 48 49 50
000
SXUS52 KJAX 260010
OSOJAX
OTHER SURFACE OBSERVATIONS
NATIONAL WEATHER SERVICE JACKSONVILLE FL
800 PM EDT SAT OCT 25 2014

FLZ020>025-030>033-035>038-040-260100-
...FLORIDA...

CITY           SKY/WX    TMP DP  RH WIND       PRES   REMARKS
CECIL FIELD    CLEAR     57  54  88 CALM      29.99R
HERLONG FIELD  NOT AVBL
FERNANDINA BCH NOT AVBL
LAKE CITY      FAIR      61  54  77 CALM      30.00R
JUNIPER SPGS   NOT AVBL
BUNNELL        FAIR      65  53  66 CALM      29.99
KEYSTONE HGTS    N/A     59  54  82 CALM      29.99R
$$

GAZ132>136-149>154-162>166-260100-
...GEORGIA...

CITY           SKY/WX    TMP DP  RH WIND       PRES   REMARKS
JESUP          FAIR      61  54  77 CALM      29.99R
HOMERVILLE     FAIR      63  55  77 CALM      30.00R
SWAINSBORO     FAIR      63  52  67 MISG      30.00R
CORDELE        NOT AVBL
$$

PLEASE NOTE:  THESE OBSERVATIONS ARE NOT QUALITY CONTROLLED AND MAY
NOT BE AVAILABLE AT ALL TIMES.
$$



USA.gov is the U.S. government's official web portal to all federal, state and local government web resources and services.